• In Austria
  • List of Countries
  • For 7 days
  • Water Temperature
  • Satellite Maps
  • Weather Map
  • News
  • Weather Widgets
  • user-avatar
    Login

    Hourly Weather La Rioja

    Today, 26 September, Wednesday

    Time Temperature Precipitation Wind Pressure Humidity
    00:00 +24°C° 0 mm 2 mps 712 mmHg 74%
    01:00 +24°C° 0 mm 2 mps 712 mmHg 76%
    02:00 +23°C° 0 mm 2 mps 712 mmHg 79%
    03:00 +23°C° 0 mm 2 mps 712 mmHg 80%
    04:00 +23°C° 0 mm 2 mps 712 mmHg 81%
    05:00 +23°C° 0 mm 2 mps 712 mmHg 82%
    06:00 +23°C° 0.1 mm 2 mps 712 mmHg 81%
    07:00 +23°C° 0.1 mm 2 mps 712 mmHg 79%
    08:00 +23°C° 0.1 mm 2 mps 713 mmHg 78%
    09:00 +24°C° 0.6 mm 2 mps 712 mmHg 73%
    10:00 +25°C° 0.6 mm 2 mps 712 mmHg 67%
    11:00 +26°C° 0.6 mm 2 mps 712 mmHg 62%
    12:00 +28°C° 0.1 mm 3 mps 712 mmHg 57%
    13:00 +29°C° 0.1 mm 3 mps 711 mmHg 52%
    14:00 +30°C° 0.1 mm 3 mps 710 mmHg 48%
    15:00 +30°C° 0.1 mm 3 mps 710 mmHg 47%
    16:00 +30°C° 0.1 mm 4 mps 710 mmHg 47%
    17:00 +30°C° 0.1 mm 4 mps 710 mmHg 47%
    18:00 +29°C° 0.4 mm 4 mps 711 mmHg 53%
    19:00 +27°C° 0.4 mm 4 mps 711 mmHg 58%
    20:00 +26°C° 0.4 mm 4 mps 712 mmHg 64%
    21:00 +26°C° 0.3 mm 4 mps 713 mmHg 68%
    22:00 +25°C° 0.3 mm 4 mps 713 mmHg 71%
    23:00 +23°C° 0.3 mm 4 mps 714 mmHg 75%

    Tomorrow, 27 September, Thursday

    Time Temperature Precipitation Wind Pressure Humidity
    00:00 +24°C° 0.2 mm 3 mps 714 mmHg 77%
    01:00 +24°C° 0.2 mm 3 mps 713 mmHg 79%
    02:00 +23°C° 0.2 mm 2 mps 713 mmHg 81%
    03:00 +23°C° 0.1 mm 2 mps 713 mmHg 81%
    04:00 +23°C° 0.1 mm 2 mps 713 mmHg 81%
    05:00 +23°C° 0.1 mm 2 mps 712 mmHg 81%
    06:00 +23°C° 0.1 mm 2 mps 713 mmHg 80%
    07:00 +23°C° 0.1 mm 2 mps 713 mmHg 78%
    08:00 +22°C° 0.1 mm 3 mps 713 mmHg 76%
    09:00 +24°C° 0.1 mm 3 mps 713 mmHg 71%
    10:00 +26°C° 0.1 mm 3 mps 712 mmHg 65%
    11:00 +27°C° 0.1 mm 3 mps 712 mmHg 59%
    12:00 +28°C° 0 mm 3 mps 711 mmHg 54%
    13:00 +29°C° 0 mm 4 mps 711 mmHg 50%
    14:00 +30°C° 0 mm 5 mps 710 mmHg 45%
    15:00 +30°C° 0 mm 5 mps 709 mmHg 46%
    16:00 +30°C° 0 mm 5 mps 709 mmHg 47%
    17:00 +30°C° 0 mm 5 mps 708 mmHg 47%
    18:00 +29°C° 0 mm 4 mps 709 mmHg 53%
    19:00 +28°C° 0 mm 4 mps 710 mmHg 59%
    20:00 +26°C° 0 mm 3 mps 711 mmHg 65%
    21:00 +26°C° 0 mm 3 mps 711 mmHg 68%
    22:00 +25°C° 0 mm 3 mps 711 mmHg 71%
    23:00 +25°C° 0 mm 2 mps 712 mmHg 74%

    Day after tomorrow, 28 September, Friday

    Time Temperature Precipitation Wind Pressure Humidity
    00:00 +24°C° 0 mm 2 mps 712 mmHg 75%
    01:00 +24°C° 0 mm 2 mps 711 mmHg 76%
    02:00 +24°C° 0 mm 2 mps 711 mmHg 77%
    03:00 +23°C° 0 mm 2 mps 711 mmHg 77%
    04:00 +23°C° 0 mm 2 mps 710 mmHg 77%
    05:00 +23°C° 0 mm 2 mps 710 mmHg 76%
    06:00 +24°C° 0 mm 2 mps 710 mmHg 73%
    07:00 +24°C° 0 mm 2 mps 711 mmHg 70%
    08:00 +25°C° 0 mm 2 mps 711 mmHg 67%
    09:00 +26°C° 0 mm 2 mps 711 mmHg 61%
    10:00 +28°C° 0 mm 2 mps 711 mmHg 55%
    11:00 +29°C° 0 mm 2 mps 710 mmHg 48%
    12:00 +31°C° 0 mm 3 mps 709 mmHg 43%
    13:00 +33°C° 0 mm 3 mps 709 mmHg 38%
    14:00 +34°C° 0 mm 3 mps 708 mmHg 34%
    15:00 +34°C° 0 mm 3 mps 707 mmHg 34%
    16:00 +34°C° 0 mm 3 mps 707 mmHg 34%
    17:00 +34°C° 0 mm 3 mps 706 mmHg 35%
    18:00 +33°C° 0 mm 3 mps 707 mmHg 39%
    19:00 +31°C° 0 mm 2 mps 707 mmHg 43%
    20:00 +30°C° 0 mm 2 mps 708 mmHg 48%
    21:00 +29°C° 0 mm 2 mps 708 mmHg 52%
    22:00 +28°C° 0 mm 2 mps 708 mmHg 55%
    23:00 +27°C° 0 mm 1 mps 708 mmHg 59%

    29 September, Saturday

    Time Temperature Precipitation Wind Pressure Humidity
    00:00 +27°C° 0 mm 1 mps 707 mmHg 60%
    01:00 +26°C° 0 mm 2 mps 707 mmHg 62%
    02:00 +26°C° 0 mm 2 mps 706 mmHg 63%
    03:00 +26°C° 0 mm 2 mps 706 mmHg 62%
    04:00 +25°C° 0 mm 2 mps 706 mmHg 61%
    05:00 +25°C° 0 mm 2 mps 706 mmHg 60%
    06:00 +26°C° 0 mm 2 mps 706 mmHg 57%
    07:00 +27°C° 0 mm 2 mps 707 mmHg 53%
    08:00 +28°C° 0 mm 2 mps 707 mmHg 50%
    09:00 +30°C° 0 mm 2 mps 707 mmHg 41%
    10:00 +34°C° 0 mm 2 mps 707 mmHg 32%
    11:00 +36°C° 0 mm 2 mps 707 mmHg 23%
    12:00 +37°C° 0 mm 3 mps 706 mmHg 19%
    13:00 +38°C° 0 mm 3 mps 705 mmHg 15%
    14:00 +39°C° 0 mm 3 mps 704 mmHg 11%
    15:00 +41°C° 0 mm 4 mps 704 mmHg 9%
    16:00 +41°C° 0 mm 4 mps 704 mmHg 8%
    17:00 +41°C° 0 mm 4 mps 704 mmHg 7%
    18:00 +38°C° 0 mm 3 mps 704 mmHg 9%
    19:00 +36°C° 0 mm 3 mps 705 mmHg 12%
    20:00 +34°C° 0 mm 2 mps 705 mmHg 15%
    21:00 +32°C° 0 mm 2 mps 706 mmHg 16%
    22:00 +31°C° 0 mm 2 mps 706 mmHg 17%
    23:00 +31°C° 0 mm 2 mps 706 mmHg 18%

    30 September, Sunday

    Time Temperature Precipitation Wind Pressure Humidity
    00:00 +30°C° 0.2 mm 2 mps 706 mmHg 21%
    01:00 +29°C° 0.2 mm 2 mps 706 mmHg 23%
    02:00 +29°C° 0.2 mm 2 mps 705 mmHg 25%
    03:00 +28°C° 0.1 mm 2 mps 706 mmHg 26%
    04:00 +27°C° 0.1 mm 2 mps 706 mmHg 28%
    05:00 +26°C° 0.1 mm 2 mps 706 mmHg 30%
    06:00 +28°C° 0 mm 3 mps 707 mmHg 25%
    07:00 +29°C° 0 mm 3 mps 707 mmHg 21%
    08:00 +30°C° 0 mm 3 mps 708 mmHg 16%
    09:00 +32°C° 0 mm 4 mps 708 mmHg 14%
    10:00 +34°C° 0 mm 4 mps 707 mmHg 11%
    11:00 +35°C° 0 mm 4 mps 707 mmHg 9%
    12:00 +36°C° 0 mm 5 mps 707 mmHg 8%
    13:00 +39°C° 0 mm 5 mps 706 mmHg 7%
    14:00 +40°C° 0 mm 6 mps 705 mmHg 5%
    15:00 +39°C° 0 mm 6 mps 705 mmHg 6%
    16:00 +39°C° 0 mm 6 mps 705 mmHg 7%
    17:00 +39°C° 0 mm 6 mps 706 mmHg 8%
    18:00 +35°C° 0 mm 6 mps 706 mmHg 14%
    19:00 +32°C° 0 mm 5 mps 707 mmHg 20%
    20:00 +29°C° 0 mm 5 mps 708 mmHg 26%
    21:00 +27°C° 0 mm 4 mps 709 mmHg 31%
    22:00 +25°C° 0 mm 4 mps 709 mmHg 36%
    23:00 +23°C° 0 mm 4 mps 710 mmHg 41%

    1 October, Monday

    Time Temperature Precipitation Wind Pressure Humidity
    00:00 +22°C° 0 mm 4 mps 710 mmHg 43%
    01:00 +20°C° 0 mm 4 mps 710 mmHg 44%
    02:00 +19°C° 0 mm 4 mps 710 mmHg 46%
    03:00 +18°C° 0 mm 3 mps 711 mmHg 49%
    04:00 +17°C° 0 mm 3 mps 711 mmHg 51%
    05:00 +16°C° 0 mm 3 mps 712 mmHg 53%
    06:00 +16°C° 0 mm 3 mps 712 mmHg 52%
    07:00 +15°C° 0 mm 4 mps 713 mmHg 51%
    08:00 +15°C° 0 mm 4 mps 714 mmHg 49%
    09:00 +18°C° 0 mm 4 mps 714 mmHg 44%
    10:00 +19°C° 0 mm 4 mps 714 mmHg 39%
    11:00 +21°C° 0 mm 5 mps 714 mmHg 34%
    12:00 +21°C° 0 mm 4 mps 713 mmHg 32%
    13:00 +22°C° 0 mm 4 mps 713 mmHg 30%
    14:00 +23°C° 0 mm 4 mps 712 mmHg 27%
    15:00 +23°C° 0 mm 4 mps 713 mmHg 27%
    16:00 +23°C° 0 mm 4 mps 713 mmHg 27%
    17:00 +23°C° 0 mm 5 mps 713 mmHg 27%
    18:00 +22°C° 0 mm 4 mps 714 mmHg 29%
    19:00 +21°C° 0 mm 4 mps 716 mmHg 30%
    20:00 +20°C° 0 mm 4 mps 717 mmHg 31%
    21:00 +19°C° 0 mm 4 mps 717 mmHg 32%
    22:00 +18°C° 0 mm 3 mps 718 mmHg 33%
    23:00 +17°C° 0 mm 3 mps 718 mmHg 34%
    Show more